Location: Newark
(25.3833°N, 97.4000°E)
Time: 12:34:47
(UTC+00:00)

METEOR M2 - Visible Passes

Search period start: 18 February 2020 00:00
Search period end: 28 February 2020 00:00
Orbit: 820 x 826 km, 98.5° (Epoch: 18 February)

Date Brightness Start Highest point End Pass type
(mag) Time Alt. Az. Time Alt. Az. Time Alt. Az.
18 Feb ? 12:54:23 38° ENE 12:54:23 38° ENE 12:58:50 10° N visible
18 Feb ? 14:35:47 15° WNW 14:35:47 15° WNW 14:37:35 10° NW visible
19 Feb ? 12:34:00 24° ENE 12:34:08 24° ENE 12:38:22 10° NNE visible
19 Feb ? 14:15:25 26° WNW 14:15:25 26° WNW 14:18:40 10° NW visible
20 Feb ? 12:13:39 15° ENE 12:14:26 15° ENE 12:17:23 10° NE visible
20 Feb ? 13:55:03 43° WNW 13:55:03 43° WNW 13:59:18 10° NNW visible
21 Feb ? 13:34:41 72° NW 13:34:41 72° NW 13:39:36 10° NNW visible
22 Feb ? 13:14:20 65° ENE 13:14:21 65° ENE 13:19:41 10° N visible
23 Feb ? 12:53:59 38° E 12:54:33 40° ENE 12:59:32 10° N visible
23 Feb ? 14:35:24 17° W 14:35:24 17° W 14:38:11 10° NW visible
24 Feb ? 12:33:39 23° E 12:34:48 25° ENE 12:39:06 10° NNE visible
24 Feb ? 14:15:03 28° W 14:15:03 28° W 14:19:19 10° NW visible
25 Feb ? 12:13:19 13° E 12:15:06 16° ENE 12:18:09 10° NNE visible
25 Feb ? 13:54:44 46° WSW 13:54:47 46° W 13:59:57 10° NNW visible
26 Feb ? 13:34:24 70° SSW 13:34:53 76° WSW 13:40:17 10° NNW visible
27 Feb ? 13:14:05 56° SE 13:15:02 67° ENE 13:20:22 10° N visible
